Regional Weather Roundup
Issued by NWS

Home | Current Version | Previous Version | Graphics & Text | Print | Product List | Glossary On
Versions: 1 2 3 4 5 6 7 8 9 10 11 12 13 14 15 16 17 18 19 20 21 22 23 24 25 26 27 28 29 30 31 32 33 34 35 36 37 38 39 40 41 42 43 44 45 46 47 48 49 50
000
ASUS43 KLMK 280610
RWRKY
KENTUCKY REGIONAL WEATHER ROUNDUP
NATIONAL WEATHER SERVICE LOUISVILLE KY
200 AM EDT THU AUG 28 2014

NOTE "FAIR" INDICATES FEW OR NO CLOUDS BELOW 12,000 FEET
WITH NO SIGNIFICANT WEATHER AND/OR OBSTRUCTIONS TO VISIBILITY.

KYZ001>023-026-027-061>063-070>075-280700-
WESTERN AND SOUTH CENTRAL KENTUCKY

CITY           SKY/WX    TMP DP  RH WIND       PRES   REMARKS
PADUCAH        FAIR      76  72  87 CALM      30.03S
HENDERSON      FAIR      73  70  88 CALM      30.04S
OWENSBORO      FAIR      77  73  87 CALM      30.04F
HOPKINSVILLE   FAIR      74  74 100 N3        30.04S
BOWLING GREEN  FAIR      75  72  90 CALM      30.04F
GLASGOW        FAIR      71  71  99 CALM      30.05S FOG
$$

KYZ024-025-028>034-038-045-046-053-280700-
NORTH CENTRAL KENTUCKY

CITY           SKY/WX    TMP DP  RH WIND       PRES   REMARKS
LOUISVILLE/SDF FAIR      74  71  91 SW5       30.05S
LOUISVILLE/LOU FAIR      73  71  93 CALM      30.05S
FORT KNOX      FAIR      70  70 100 CALM      30.05S
$$

KYZ035>037-039>044-047>052-055>060-089>105-280700-
NORTHEAST KENTUCKY

CITY           SKY/WX    TMP DP  RH WIND       PRES   REMARKS
LEXINGTON      FAIR      72  67  84 CALM      30.07S
COVINGTON      FAIR      75  68  78 N6        30.06F
FRANKFORT      FAIR      70  69  97 CALM      30.05F
$$

KYZ054-064>069-076>088-106>120-280700-
SOUTHEAST KENTUCKY

CITY           SKY/WX    TMP DP  RH WIND       PRES   REMARKS
JACKSON        MOCLDY    74  69  85 NW5       30.08S
LONDON         FAIR      71  68  90 CALM      30.07F
SOMERSET       FAIR      70  70 100 CALM      30.07F FOG
MIDDLESBORO    FAIR      65  65  97 CALM      30.09S
MONTICELLO     FAIR      69  69 100 CALM      30.08F FOG
$$




USA.gov is the U.S. government's official web portal to all federal, state and local government web resources and services.